FW9290 Weather Reports


time (UTC)temp
F
wind
direction
speed
knots
gust
knots
rain 1hr
in
rain 24hr
in
rain mn
in
humidity
%
barometer
mb
20260502181537 73 294 0.9 6.1 0.00 2.61 0.00 53 1020.5
20260502181019 73 59 0.9 6.1 0.00 2.61 0.00 52 1020.7
20260502180518 73 220 1.7 5.2 0.00 2.61 0.00 52 1020.6
20260502162020 69 39 1.7 9.6 0.00 3.52 0.00 60 1020.8
20260502161537 70 67 0.9 5.2 0.00 3.52 0.00 61 1020.8
20260502161019 69 3 0.9 5.2 0.00 3.52 0.00 61 1020.7
20260502160526 69 6 1.7 4.3 0.00 3.52 0.00 62 1020.8
20260502152018 66 123 0.9 6.1 0.00 3.53 0.00 70 1020.8
20260502151540 66 44 0.9 6.1 0.00 3.53 0.00 73 1020.6
20260502151019 66 43 0.9 5.2 0.00 3.53 0.00 71 1020.7
20260502150519 65 67 0.0 4.3 0.00 3.53 0.00 73 1020.6
20260502130518 56 37 0.9 3.5 0.00 3.64 0.00 90 1019.6
20260502123518 54 0 0.9 3.5 0.00 3.65 0.00 92 1019.3
20260502123036 54 56 0.0 1.7 0.00 3.65 0.00 92 1019.2
20260502122519 53 0 0.0 1.7 0.00 3.65 0.00 92 1019.1
20260502122019 53 338 0.0 0.9 0.00 3.65 0.00 93 1018.9
20260502121535 53 0 0.0 1.7 0.00 3.65 0.00 92 1019.0
20260502121020 53 6 0.0 1.7 0.00 3.65 0.00 92 1018.8
20260502120518 53 0 0.0 0.9 0.00 3.65 0.00 92 1018.8
20260502115522 53 0 0.0 1.7 0.00 3.65 0.00 92 1018.7
20260502115020 53 328 0.0 2.6 0.00 3.65 0.00 92 1018.6
20260502114539 53 0 0.0 2.6 0.00 3.65 0.00 92 1018.6
20260502114019 53 314 0.0 2.6 0.00 3.65 0.00 92 1018.6
20260502113521 53 84 0.0 1.7 0.00 3.65 0.00 92 1018.7
20260502113033 53 0 0.0 0.9 0.00 3.65 0.00 92 1018.7
20260502112518 53 0 0.0 1.7 0.00 3.65 0.00 92 1018.7
20260502112018 53 0 0.0 1.7 0.00 3.65 0.00 92 1018.5
20260502111535 53 0 0.0 1.7 0.00 3.65 0.00 91 1018.4
20260502111018 53 328 0.0 1.7 0.00 3.65 0.00 91 1018.4
20260502110518 54 0 0.0 1.7 0.00 3.65 0.00 91 1018.4
20260502110036 54 0 0.0 1.7 0.00 3.65 0.00 91 1018.3
20260502105519 54 41 0.0 1.7 0.00 3.68 0.00 91 1018.1
20260502105018 54 0 0.0 2.6 0.00 3.68 0.00 91 1018.0
20260502104537 54 0 0.0 2.6 0.00 3.68 0.00 91 1018.1
20260502104021 54 0 0.0 1.7 0.00 3.68 0.00 91 1018.0
20260502103519 54 0 0.0 1.7 0.00 3.68 0.00 91 1017.8
20260502103037 54 1 0.0 1.7 0.00 3.68 0.00 91 1017.7
20260502102519 54 318 0.0 1.7 0.00 3.68 0.00 90 1017.7
20260502102019 54 315 0.0 3.5 0.00 3.68 0.00 90 1017.7
20260502101535 54 13 0.9 3.5 0.00 3.68 0.00 90 1017.6
20260502101021 54 0 0.0 1.7 0.00 3.68 0.00 90 1017.5
20260502100518 54 0 0.0 0.9 0.00 3.68 0.00 89 1017.3
20260502091019 56 0 0.9 3.5 0.00 3.80 0.00 88 1016.6
20260502090518 56 43 0.0 3.5 0.00 3.80 0.00 88 1016.6
20260502071019 56 65 0.9 6.1 0.00 3.93 0.00 91 1016.2
20260502070522 56 58 0.0 2.6 0.00 3.93 0.00 91 1016.3
20260502070047 56 19 0.0 4.3 0.00 3.93 0.00 91 1016.4
20260502065519 56 342 0.9 5.2 0.00 3.94 0.00 91 1016.4
20260502065018 56 37 0.9 5.2 0.00 3.94 0.00 91 1016.4
20260502064544 56 76 0.9 6.1 0.00 3.94 0.00 91 1016.3
20260502064020 56 296 0.9 6.1 0.00 3.94 0.00 91 1016.3
20260502063518 56 0 0.0 4.3 0.00 3.94 0.00 91 1016.3
20260502063036 56 15 0.9 4.3 0.00 3.94 0.00 91 1016.0
20260502062518 56 332 0.9 5.2 0.00 3.94 0.00 91 1016.0
20260502062019 56 323 0.9 6.1 0.00 3.94 0.00 91 1016.0
20260502061537 56 84 0.9 6.1 0.00 3.94 0.00 91 1016.0
20260502061021 56 8 1.7 7.0 0.00 3.94 0.00 91 1016.0
20260502060519 56 17 2.6 7.0 0.00 3.94 0.00 91 1016.0
20260502060036 56 271 0.9 5.2 0.00 3.94 0.00 91 1015.9
20260502055519 56 262 1.7 7.0 0.00 4.12 0.00 91 1015.9
20260502055019 56 11 1.7 7.0 0.00 4.12 0.00 92 1015.9
20260502054535 56 52 0.9 7.0 0.00 4.12 0.00 92 1016.0
20260502054018 56 333 1.7 5.2 0.00 4.12 0.00 92 1016.0
20260502053519 56 65 1.7 5.2 0.00 4.12 0.00 92 1016.0
20260502053035 56 0 0.9 5.2 0.00 4.12 0.00 92 1016.0
20260502052518 56 327 0.9 5.2 0.00 4.12 0.00 92 1015.9
20260502052018 56 125 0.9 5.2 0.00 4.12 0.00 92 1016.0
20260502051537 56 31 1.7 5.2 0.00 4.12 0.00 93 1015.9
20260502051021 56 20 0.9 7.8 0.00 4.12 0.00 92 1016.0
20260502050520 56 13 0.9 7.8 0.00 4.12 0.00 93 1015.7
20260502050037 56 63 1.7 7.0 0.00 4.12 0.00 93 1015.7
20260502045519 56 27 1.7 7.0 0.00 4.12 4.12 93 1015.8
20260502045021 56 38 0.9 9.6 0.00 4.12 4.12 93 1015.9
20260502044537 56 271 0.9 9.6 0.00 4.12 4.12 93 1015.8
20260502044018 56 334 2.6 9.6 0.00 4.12 4.12 93 1015.9
20260502043518 56 65 1.7 6.1 0.00 4.12 4.12 93 1016.0
20260502043041 56 56 1.7 5.2 0.00 4.12 4.12 93 1016.0
20260502042518 56 297 2.6 5.2 0.00 4.12 4.12 94 1016.0
20260502042018 56 315 0.9 5.2 0.00 4.12 4.12 94 1015.9
20260502041542 56 243 0.9 5.2 0.00 4.12 4.12 94 1015.7
20260502041022 56 29 1.7 5.2 0.00 4.12 4.12 94 1015.7
20260502040518 56 30 0.0 6.1 0.00 4.12 4.12 94 1015.7
20260502040035 56 286 1.7 6.1 0.00 4.12 4.12 94 1015.8
20260502035519 56 303 0.9 6.1 0.00 4.12 4.12 94 1015.8
20260502035019 56 32 0.9 7.0 0.00 4.12 4.12 94 1015.8
20260502034538 56 302 1.7 7.0 0.00 4.12 4.12 94 1015.6
20260502034022 56 9 1.7 5.2 0.01 4.12 4.12 94 1015.4
20260502033520 57 338 0.9 6.1 0.01 4.12 4.12 94 1015.4
20260502033039 57 313 0.9 6.1 0.01 4.12 4.12 94 1015.2
20260502032518 57 34 0.9 6.1 0.01 4.12 4.12 94 1015.3
20260502032018 57 32 0.9 4.3 0.01 4.12 4.12 94 1015.4
20260502031535 57 353 1.7 7.0 0.03 4.12 4.12 94 1015.0
20260502031019 57 4 0.9 7.0 0.04 4.12 4.12 94 1014.7
20260502030517 57 278 1.7 7.0 0.07 4.12 4.12 94 1014.8
20260502030035 57 41 1.7 7.0 0.09 4.12 4.12 95 1014.1
20260502025519 57 0 0.9 6.1 0.09 4.12 4.12 95 1014.1
20260502025019 57 0 1.7 6.1 0.09 4.12 4.12 95 1014.2
20260502024539 57 0 0.9 6.1 0.08 4.11 4.11 95 1014.2
20260502024021 57 288 1.7 6.1 0.08 4.11 4.11 95 1014.2
20260502023521 57 359 0.9 6.1 0.08 4.11 4.11 95 1014.0
20260502023037 57 16 1.7 7.0 0.08 4.11 4.11 95 1014.0
20260502022518 57 51 1.7 7.0 0.09 4.11 4.11 94 1013.9
20260502022018 58 65 0.9 5.2 0.08 4.10 4.10 95 1013.9
20260502021535 58 0 1.7 6.1 0.08 4.09 4.09 95 1014.0
20260502021020 58 338 1.7 6.1 0.08 4.08 4.08 95 1014.0
20260502020519 58 15 0.0 2.6 0.05 4.04 4.04 95 1014.0
20260502020033 58 0 0.0 2.6 0.04 4.03 4.03 95 1013.9
20260502015519 58 0 0.0 2.6 0.05 4.03 4.03 95 1013.8
20260502015019 58 238 0.0 2.6 0.05 4.03 4.03 95 1013.8
20260502014549 58 41 0.0 3.5 0.05 4.03 4.03 95 1013.9
20260502014019 58 327 0.9 4.3 0.05 4.03 4.03 95 1013.8
20260502013519 58 27 0.0 4.3 0.05 4.03 4.03 95 1013.5
20260502013036 58 77 0.9 3.5 0.06 4.03 4.03 95 1013.5
20260502012519 59 325 0.9 5.2 0.05 4.02 4.02 95 1013.3
20260502012022 58 350 0.9 5.2 0.05 4.02 4.02 95 1013.0
20260502011544 59 316 1.7 7.8 0.05 4.01 4.01 95 1013.0
20260502011020 59 16 0.0 7.8 0.05 4.00 4.00 95 1012.9
20260502010522 59 287 0.9 5.2 0.07 3.99 3.99 95 1012.9
20260502010040 59 314 1.7 5.2 0.09 3.99 3.99 95 1013.0
20260502005519 59 323 0.9 3.5 0.11 3.98 3.98 95 1013.2
20260502005019 59 328 0.9 4.3 0.18 3.98 3.98 95 1013.1
20260502004533 59 0 0.9 5.2 0.20 3.98 3.98 95 1012.6
20260502004019 59 72 0.9 5.2 0.21 3.98 3.98 95 1012.0
20260502003518 59 312 0.9 4.3 0.21 3.98 3.98 95 1011.8
20260502003033 59 335 0.9 4.3 0.20 3.97 3.97 95 1011.7
20260502002518 59 283 0.9 3.5 0.20 3.97 3.97 95 1011.7
20260502002019 59 318 0.0 3.5 0.21 3.97 3.97 95 1011.8
20260502001536 59 46 0.9 3.5 0.22 3.96 3.96 95 1012.0
20260502001019 59 39 0.0 4.3 0.21 3.94 3.94 95 1011.9
20260502000518 59 46 0.9 5.2 0.20 3.92 3.92 95 1012.0
20260502000051 59 0 0.9 7.0 0.19 3.90 3.90 95 1012.0
20260501235521 59 324 1.7 7.0 0.17 3.87 3.87 95 1012.0
20260501235019 59 277 0.9 5.2 0.09 3.79 3.79 94 1012.2
20260501234537 59 31 1.7 7.8 0.08 3.78 3.78 94 1011.9
20260501234019 60 331 1.7 7.8 0.07 3.77 3.77 94 1011.5
20260501233519 60 73 1.7 7.0 0.07 3.77 3.77 94 1010.7
20260501233034 60 28 1.7 6.1 0.07 3.77 3.77 94 1010.6
20260501232521 60 330 1.7 6.1 0.07 3.77 3.77 94 1010.8
20260501232025 60 9 0.9 5.2 0.07 3.76 3.76 94 1010.6
20260501231535 60 58 0.9 5.2 0.05 3.74 3.74 94 1011.3
20260501231018 60 36 1.7 5.2 0.04 3.73 3.73 94 1011.5
20260501230523 60 319 1.7 5.2 0.02 3.71 3.71 94 1011.4
20260501230043 61 95 0.9 5.2 0.02 3.70 3.70 94 1011.1
20260501225521 61 336 0.9 5.2 0.03 3.70 3.70 94 1010.9
20260501225021 61 0 0.9 5.2 0.07 3.70 3.70 95 1010.8
20260501224540 61 0 0.0 7.0 0.14 3.70 3.70 95 1010.7
20260501224021 61 357 0.9 7.0 0.23 3.70 3.70 95 1010.7
20260501223521 61 53 0.9 5.2 0.28 3.70 3.70 95 1010.6
20260501223039 61 24 1.7 5.2 0.34 3.70 3.70 95 1010.6
20260501222519 61 49 2.6 5.2 0.45 3.70 3.70 95 1010.4
20260501222019 61 16 0.9 5.2 0.46 3.69 3.69 95 1010.3
20260501221535 61 355 1.7 6.1 0.48 3.69 3.69 95 1010.7
20260501221018 61 17 1.7 6.1 0.51 3.69 3.69 95 1010.6
20260501220519 61 329 1.7 6.1 0.51 3.69 3.69 95 1010.8
20260501220036 61 11 0.9 6.1 0.51 3.68 3.68 95 1010.7
20260501215519 61 18 0.9 2.6 0.50 3.67 3.67 95 1010.7
20260501215022 61 302 0.9 2.6 0.46 3.62 3.62 95 1011.0
20260501214540 61 72 0.9 3.5 0.41 3.55 3.55 95 1011.4
20260501214018 61 335 0.9 3.5 0.34 3.46 3.46 95 1011.4
20260501213521 61 25 0.0 3.5 0.33 3.42 3.42 95 1010.9
20260501213035 61 316 0.0 1.7 0.29 3.34 3.34 95 1010.9
20260501212518 61 345 0.0 4.3 0.24 3.24 3.24 95 1011.3
20260501212019 61 45 0.0 4.3 0.25 3.23 3.23 95 1011.1
20260501211538 62 49 0.9 4.3 0.27 3.21 3.21 95 1010.8
20260501211021 62 347 0.9 3.5 0.34 3.18 3.18 95 1010.8
20260501210519 62 0 0.0 5.2 0.34 3.18 3.18 95 1010.9
20260501210033 62 39 0.9 6.1 0.34 3.17 3.17 95 1010.1
20260501205519 62 31 1.7 6.1 0.34 3.17 3.17 95 1009.5
20260501205020 62 25 1.7 6.1 0.34 3.16 3.16 95 1009.4
20260501204536 62 29 0.9 5.2 0.33 3.14 3.14 95 1009.3
20260501204018 62 344 0.9 5.2 0.33 3.12 3.12 95 1009.5
20260501203518 62 351 0.9 3.5 0.32 3.09 3.09 95 1009.4
20260501203036 62 307 0.9 3.5 0.36 3.04 3.04 95 1010.2
20260501202518 62 0 0.0 4.3 0.33 2.99 2.99 95 1010.5
20260501202018 62 8 0.0 4.3 0.32 2.97 2.97 95 1010.3
20260501201552 62 70 0.9 4.3 0.28 2.93 2.93 95 1010.1
20260501201020 62 49 0.0 6.1 0.19 2.84 2.84 95 1010.3
20260501200521 62 46 0.9 6.1 0.20 2.84 2.84 95 1009.9
20260501200037 62 356 1.7 4.3 0.19 2.83 2.83 95 1009.2
20260501195520 62 82 0.9 7.8 0.19 2.83 2.83 95 1009.3
20260501195022 63 322 0.9 7.8 0.19 2.82 2.82 95 1009.4
20260501194540 62 43 0.9 7.8 0.20 2.81 2.81 95 1009.2
20260501194019 62 0 0.9 3.5 0.27 2.79 2.79 95 1009.2
20260501193518 62 51 0.9 3.5 0.62 2.75 2.75 95 1009.2
20260501193036 62 52 0.0 7.8 0.73 2.67 2.67 95 1009.3
20260501192520 62 33 0.0 7.8 0.74 2.66 2.66 95 1009.4
20260501192018 62 64 0.0 2.6 0.73 2.65 2.65 95 1009.2
20260501191539 62 0 0.0 4.3 0.75 2.65 2.65 96 1009.8
20260501191025 62 331 0.9 4.3 0.77 2.64 2.64 95 1009.8
20260501190522 62 0 0.0 4.3 0.89 2.64 2.64 96 1009.6
20260501190039 62 28 1.7 7.8 1.10 2.64 2.64 96 1009.3
20260501185518 62 195 1.7 7.8 1.17 2.64 2.64 96 1008.6
20260501185021 62 274 0.9 3.5 1.19 2.63 2.63 96 1008.6
20260501184533 63 75 0.9 4.3 1.17 2.61 2.61 96 1009.4
20260501184019 63 0 0.0 4.3 1.09 2.50 2.50 95 1010.3
20260501183522 63 105 0.0 3.5 0.69 2.08 2.08 96 1009.4
20260501183045 63 262 0.9 3.5 0.55 1.93 1.93 96 1011.9
20260501182519 62 256 0.9 3.5 0.54 1.92 1.92 96 1010.6
20260501182021 62 345 0.0 4.3 0.55 1.92 1.92 95 1008.7